• In Russia
  • List of Countries
  • For 7 days
  • Water Temperature
  • Weather Map
  • Weather Widgets
  • user-avatar
    Login

    Hourly Weather Ordino

    Today, 14 November, Thursday

    Time Temperature Precipitation Wind Pressure Humidity
    00:00 -3°C° 0 mm 2 mps 622 mmHg 79%
    01:00 -2°C° 0 mm 2 mps 621 mmHg 82%
    02:00 -2°C° 0 mm 2 mps 621 mmHg 85%
    03:00 -1°C° 0 mm 3 mps 620 mmHg 88%
    04:00 -1°C° 0.7 mm 2 mps 620 mmHg 91%
    05:00 -1°C° 0.7 mm 2 mps 619 mmHg 94%
    06:00 +1°C° 0.7 mm 1 mps 619 mmHg 98%
    07:00 +1°C° 1.9 mm 1 mps 619 mmHg 97%
    08:00 0°C° 1.9 mm 1 mps 619 mmHg 97%
    09:00 0°C° 1.9 mm 1 mps 618 mmHg 97%
    10:00 0°C° 1.6 mm 1 mps 618 mmHg 97%
    11:00 0°C° 1.6 mm 1 mps 618 mmHg 97%
    12:00 +1°C° 1.6 mm 1 mps 618 mmHg 97%
    13:00 0°C° 1.9 mm 1 mps 617 mmHg 96%
    14:00 -2°C° 1.9 mm 2 mps 616 mmHg 96%
    15:00 -3°C° 1.9 mm 2 mps 616 mmHg 96%
    16:00 -4°C° 0.9 mm 2 mps 616 mmHg 95%
    17:00 -5°C° 0.9 mm 2 mps 616 mmHg 94%
    18:00 -4°C° 0.9 mm 1 mps 615 mmHg 93%
    19:00 -6°C° 0 mm 1 mps 615 mmHg 90%
    20:00 -7°C° 0 mm 1 mps 615 mmHg 87%
    21:00 -8°C° 0 mm 1 mps 614 mmHg 84%
    22:00 -8°C° 0 mm 1 mps 615 mmHg 83%
    23:00 -7°C° 0 mm 1 mps 615 mmHg 81%

    Tomorrow, 15 November, Friday

    Time Temperature Precipitation Wind Pressure Humidity
    00:00 -7°C° 0 mm 1 mps 615 mmHg 80%
    01:00 -7°C° 0 mm 1 mps 615 mmHg 81%
    02:00 -6°C° 0 mm 1 mps 616 mmHg 82%
    03:00 -7°C° 0 mm 2 mps 616 mmHg 83%
    04:00 -7°C° 0 mm 2 mps 616 mmHg 85%
    05:00 -8°C° 0 mm 2 mps 616 mmHg 87%
    06:00 -8°C° 0 mm 2 mps 616 mmHg 90%
    07:00 -7°C° 0 mm 2 mps 617 mmHg 89%
    08:00 -4°C° 0 mm 1 mps 617 mmHg 89%
    09:00 -3°C° 0 mm 1 mps 618 mmHg 88%
    10:00 -2°C° 0 mm 1 mps 618 mmHg 85%
    11:00 -1°C° 0 mm 1 mps 619 mmHg 83%
    12:00 0°C° 0 mm 1 mps 619 mmHg 80%
    13:00 0°C° 0 mm 1 mps 619 mmHg 82%
    14:00 -1°C° 0 mm 1 mps 619 mmHg 83%
    15:00 -1°C° 0 mm 1 mps 619 mmHg 85%
    16:00 -2°C° 0 mm 1 mps 619 mmHg 88%
    17:00 -5°C° 0 mm 2 mps 619 mmHg 91%
    18:00 -7°C° 0 mm 2 mps 619 mmHg 94%
    19:00 -7°C° 0 mm 2 mps 619 mmHg 93%
    20:00 -7°C° 0 mm 2 mps 620 mmHg 92%
    21:00 -6°C° 0 mm 1 mps 620 mmHg 92%
    22:00 -8°C° 0 mm 2 mps 620 mmHg 90%
    23:00 -8°C° 0 mm 2 mps 621 mmHg 89%

    Day after tomorrow, 16 November, Saturday

    Time Temperature Precipitation Wind Pressure Humidity
    00:00 -8°C° 0 mm 2 mps 621 mmHg 88%
    01:00 -8°C° 0 mm 2 mps 621 mmHg 86%
    02:00 -9°C° 0 mm 2 mps 621 mmHg 84%
    03:00 -9°C° 0 mm 2 mps 621 mmHg 82%
    04:00 -9°C° 0 mm 2 mps 621 mmHg 81%
    05:00 -9°C° 0 mm 2 mps 621 mmHg 80%
    06:00 -9°C° 0 mm 2 mps 622 mmHg 79%
    07:00 -6°C° 0 mm 1 mps 623 mmHg 77%
    08:00 -3°C° 0 mm 1 mps 624 mmHg 75%
    09:00 -1°C° 0 mm 1 mps 625 mmHg 73%
    10:00 0°C° 0 mm 1 mps 625 mmHg 72%
    11:00 +1°C° 0 mm 1 mps 626 mmHg 71%
    12:00 +2°C° 0 mm 1 mps 626 mmHg 69%
    13:00 +1°C° 0 mm 1 mps 626 mmHg 73%
    14:00 +1°C° 0 mm 1 mps 625 mmHg 76%
    15:00 0°C° 0 mm 0 mps 625 mmHg 79%
    16:00 -1°C° 0 mm 1 mps 625 mmHg 83%
    17:00 -3°C° 0 mm 1 mps 624 mmHg 86%
    18:00 -7°C° 0 mm 2 mps 623 mmHg 90%
    19:00 -7°C° 0 mm 2 mps 623 mmHg 87%
    20:00 -8°C° 0 mm 2 mps 623 mmHg 85%
    21:00 -8°C° 0 mm 2 mps 623 mmHg 82%
    22:00 -8°C° 0 mm 2 mps 624 mmHg 84%
    23:00 -8°C° 0 mm 2 mps 624 mmHg 85%

    17 November, Sunday

    Time Temperature Precipitation Wind Pressure Humidity
    00:00 -7°C° 0 mm 2 mps 624 mmHg 87%
    01:00 -7°C° 0 mm 2 mps 623 mmHg 87%
    02:00 -7°C° 0 mm 2 mps 623 mmHg 88%
    03:00 -8°C° 0 mm 3 mps 623 mmHg 89%
    04:00 -8°C° 0 mm 3 mps 623 mmHg 90%
    05:00 -7°C° 0 mm 3 mps 623 mmHg 91%
    06:00 -7°C° 0 mm 3 mps 623 mmHg 92%
    07:00 -6°C° 0 mm 3 mps 624 mmHg 88%
    08:00 -4°C° 0 mm 2 mps 624 mmHg 85%
    09:00 -3°C° 0 mm 2 mps 624 mmHg 81%
    10:00 -2°C° 0 mm 2 mps 624 mmHg 79%
    11:00 -1°C° 0 mm 2 mps 625 mmHg 77%
    12:00 +2°C° 0 mm 2 mps 625 mmHg 75%
    13:00 +1°C° 0 mm 2 mps 624 mmHg 79%
    14:00 +1°C° 0 mm 2 mps 624 mmHg 82%
    15:00 -1°C° 0 mm 2 mps 624 mmHg 86%
    16:00 -2°C° 0 mm 2 mps 623 mmHg 88%
    17:00 -3°C° 0 mm 2 mps 623 mmHg 91%
    18:00 -4°C° 0 mm 2 mps 623 mmHg 93%
    19:00 -4°C° 0 mm 2 mps 623 mmHg 93%
    20:00 -5°C° 0 mm 2 mps 623 mmHg 93%
    21:00 -5°C° 0 mm 2 mps 624 mmHg 92%
    22:00 -5°C° 0 mm 2 mps 624 mmHg 92%
    23:00 -5°C° 0 mm 2 mps 624 mmHg 91%

    18 November, Monday

    Time Temperature Precipitation Wind Pressure Humidity
    00:00 -5°C° 0 mm 2 mps 624 mmHg 91%
    01:00 -4°C° 0.1 mm 2 mps 624 mmHg 91%
    02:00 -4°C° 0.1 mm 2 mps 624 mmHg 92%
    03:00 -4°C° 0.1 mm 2 mps 624 mmHg 92%
    04:00 -4°C° 0.4 mm 2 mps 624 mmHg 93%
    05:00 -4°C° 0.4 mm 2 mps 625 mmHg 93%
    06:00 -4°C° 0.4 mm 2 mps 625 mmHg 93%
    07:00 -3°C° 0.4 mm 2 mps 626 mmHg 91%
    08:00 -2°C° 0.4 mm 2 mps 626 mmHg 90%
    09:00 -1°C° 0.4 mm 2 mps 627 mmHg 88%
    10:00 -1°C° 0.3 mm 2 mps 627 mmHg 87%
    11:00 -1°C° 0.3 mm 2 mps 627 mmHg 86%
    12:00 +1°C° 0.3 mm 2 mps 627 mmHg 85%
    13:00 +1°C° 0.3 mm 2 mps 627 mmHg 86%
    14:00 -1°C° 0.3 mm 2 mps 627 mmHg 87%
    15:00 -1°C° 0.3 mm 2 mps 627 mmHg 88%
    16:00 -2°C° 0.1 mm 2 mps 627 mmHg 90%
    17:00 -3°C° 0.1 mm 2 mps 627 mmHg 92%
    18:00 -4°C° 0.1 mm 2 mps 627 mmHg 95%
    19:00 -5°C° 0 mm 2 mps 627 mmHg 94%
    20:00 -5°C° 0 mm 2 mps 627 mmHg 93%
    21:00 -5°C° 0 mm 2 mps 628 mmHg 92%
    22:00 -6°C° 0 mm 2 mps 628 mmHg 87%
    23:00 -7°C° 0 mm 2 mps 627 mmHg 82%

    19 November, Tuesday

    Time Temperature Precipitation Wind Pressure Humidity
    00:00 -7°C° 0 mm 2 mps 627 mmHg 77%
    01:00 -7°C° 0 mm 2 mps 627 mmHg 74%
    02:00 -7°C° 0 mm 2 mps 627 mmHg 70%
    03:00 -7°C° 0 mm 2 mps 627 mmHg 67%
    04:00 -6°C° 0 mm 2 mps 627 mmHg 67%
    05:00 -6°C° 0 mm 2 mps 627 mmHg 68%
    06:00 -5°C° 0 mm 2 mps 627 mmHg 68%
    07:00 -4°C° 0 mm 2 mps 627 mmHg 70%
    08:00 -2°C° 0 mm 2 mps 628 mmHg 71%
    09:00 -1°C° 0 mm 2 mps 629 mmHg 72%
    10:00 +1°C° 0 mm 2 mps 628 mmHg 74%
    11:00 +2°C° 0 mm 2 mps 628 mmHg 76%
    12:00 +3°C° 0 mm 2 mps 628 mmHg 77%
    13:00 +2°C° 0 mm 2 mps 628 mmHg 81%
    14:00 +2°C° 0 mm 2 mps 628 mmHg 85%
    15:00 +3°C° 0 mm 1 mps 627 mmHg 89%
    16:00 +2°C° 0 mm 1 mps 627 mmHg 90%
    17:00 +1°C° 0 mm 2 mps 627 mmHg 91%
    18:00 +1°C° 0 mm 2 mps 627 mmHg 93%
    19:00 +1°C° 0 mm 2 mps 627 mmHg 93%
    20:00 +1°C° 0 mm 2 mps 627 mmHg 94%
    21:00 +1°C° 0 mm 2 mps 627 mmHg 95%
    22:00 +1°C° 0 mm 2 mps 626 mmHg 95%
    23:00 +1°C° 0 mm 2 mps 626 mmHg 96%
    Show more